Hourly Data Report for October 10, 2020

TORONTO CITY
ONTARIO
Current Station Operator: ECCC - MSC

43°40'00.000" N
79°24'00.000" W
112.50 m
6158355
71508
XTO

Download Data

Hourly Data (October 2020)
Hourly Data Report for October 10, 2020
TIME
LST
Temp Definition
°C
Dew Point Definition
°C
Rel Hum Definition
%
Precip. Amount Definition
mm

Wind Dir Definition
10's deg

Wind Spd Definition
km/h
Visibility Definition
km
Stn Press Definition
kPa
Hmdx Definition


Wind Chill Definition


Weather Definition


00:00 15.7 8.1 61 0.0       99.55     LegendNANA
01:00 15.5 7.8 60 0.0       99.56     LegendNANA
02:00 14.6 8.1 65 0.0       99.52     LegendNANA
03:00 13.7 8.2 69 0.0       99.43     LegendNANA
04:00 14.1 8.7 70 0.0       99.41     LegendNANA
05:00 13.8 9.2 73 0.0       99.40     LegendNANA
06:00 14.3 9.9 75 0.0       99.39     LegendNANA
07:00 14.5 10.4 76 0.0       99.38     LegendNANA
08:00 18.0 13.0 72 0.0       99.39     LegendNANA
09:00 19.4 13.2 67 0.0       99.39     LegendNANA
10:00 20.6 13.8 65 0.0       99.42     LegendNANA
11:00 22.3 14.4 61 0.0       99.39 26   LegendNANA
12:00 21.8 13.9 61 0.0       99.40 25   LegendNANA
13:00 21.8 14.2 62 0.0       99.39 25   LegendNANA
14:00 21.4 14.4 65 0.0       99.39 25   LegendNANA
15:00 20.5 14.5 68 0.0       99.48     LegendNANA
16:00 18.9 11.6 63 0.0       99.59     LegendNANA
17:00 18.3 9.6 57 0.0       99.71     LegendNANA
18:00 16.6 3.7 42 0.2       99.84     LegendNANA
19:00 15.3 5.1 50 0.0       99.99     LegendNANA
20:00 14.2 6.3 59 0.0       100.06     LegendNANA
21:00 13.7 7.0 64 0.0       100.18     LegendNANA
22:00 13.0 5.9 62 0.0       100.25     LegendNANA
23:00 12.3 5.6 63 0.0       100.35     LegendNANA

Notes on Data Quality.

Legend

  • E = Estimated
  • M = Missing
  • NA = Not Available*
  • [empty] = Indicates an unobserved value
Date modified: